Raufarhofn Airport


Codes: BIRG/RFN
Name: Raufarhofn Airport
City: Raufarhofn
Country: Iceland
Elevation: 39 ft.

Photos at Raufarhofn Airport


   Photos courtesy of SpottingLog. You can add your own sightings and photos by signing up for a free trial today.



No photos found.

Weather at Raufarhofn Airport


Time (UTC)DescriptionTempratureWindCloud coverageVisibilityPressureHumidity
16-Jun-2024 00:00Broken Clouds8°C7 mph, SW82%10000m1015hPa79%
16-Jun-2024 03:00Overcast Clouds9°C11 mph, W88%10000m1015hPa78%
16-Jun-2024 06:00Overcast Clouds8°C16 mph, W94%10000m1014hPa87%
16-Jun-2024 09:00Overcast Clouds6°C16 mph, NW100%10000m1015hPa89%
16-Jun-2024 12:00Overcast Clouds6°C11 mph, NW100%10000m1016hPa84%
16-Jun-2024 15:00Overcast Clouds6°C11 mph, N89%10000m1017hPa77%
16-Jun-2024 18:00Overcast Clouds5°C9 mph, NE90%10000m1018hPa78%
16-Jun-2024 21:00Overcast Clouds4°C9 mph, NE96%10000m1019hPa82%
17-Jun-2024 00:00Overcast Clouds4°C7 mph, E95%10000m1020hPa80%
17-Jun-2024 03:00Overcast Clouds4°C9 mph, E99%10000m1020hPa82%
17-Jun-2024 06:00Overcast Clouds5°C9 mph, E100%10000m1020hPa75%
17-Jun-2024 09:00Scattered Clouds6°C11 mph, E34%10000m1021hPa64%
17-Jun-2024 12:00Few Clouds7°C11 mph, E21%10000m1020hPa59%
17-Jun-2024 15:00Clear Sky7°C9 mph, E4%10000m1021hPa60%
17-Jun-2024 18:00Clear Sky7°C9 mph, E2%10000m1020hPa59%
17-Jun-2024 21:00Clear Sky6°C9 mph, E0%10000m1020hPa60%
18-Jun-2024 00:00Clear Sky5°C7 mph, E0%10000m1020hPa69%
18-Jun-2024 03:00Scattered Clouds4°C7 mph, E49%10000m1019hPa80%
18-Jun-2024 06:00Broken Clouds4°C7 mph, NE62%10000m1018hPa82%
18-Jun-2024 09:00Scattered Clouds5°C7 mph, N46%10000m1018hPa78%
18-Jun-2024 12:00Scattered Clouds5°C11 mph, NW50%10000m1017hPa75%
18-Jun-2024 15:00Broken Clouds5°C11 mph, N51%10000m1016hPa68%
18-Jun-2024 18:00Scattered Clouds4°C9 mph, NE41%10000m1014hPa68%
18-Jun-2024 21:00Broken Clouds3°C7 mph, E51%10000m1014hPa70%
19-Jun-2024 00:00Scattered Clouds3°C9 mph, E41%10000m1012hPa75%
19-Jun-2024 03:00Scattered Clouds3°C7 mph, E27%10000m1010hPa81%
19-Jun-2024 06:00Broken Clouds3°C9 mph, E61%10000m1010hPa82%
19-Jun-2024 09:00Overcast Clouds4°C9 mph, E97%10000m1010hPa79%
19-Jun-2024 12:00Overcast Clouds5°C9 mph, NE91%10000m1011hPa77%
19-Jun-2024 15:00Scattered Clouds5°C9 mph, NE46%10000m1012hPa80%
19-Jun-2024 18:00Scattered Clouds5°C9 mph, NE46%10000m1012hPa80%
19-Jun-2024 21:00Scattered Clouds4°C4 mph, NE32%10000m1013hPa82%
20-Jun-2024 00:00Few Clouds4°C4 mph, NE22%10000m1013hPa84%
20-Jun-2024 03:00Clear Sky4°C2 mph, E2%10000m1013hPa86%
20-Jun-2024 06:00Clear Sky5°C7 mph, E2%10000m1013hPa81%
20-Jun-2024 09:00Broken Clouds6°C9 mph, E61%10000m1012hPa79%
20-Jun-2024 12:00Broken Clouds7°C11 mph, E81%10000m1012hPa79%
20-Jun-2024 15:00Overcast Clouds7°C13 mph, E100%10000m1011hPa79%
20-Jun-2024 18:00Overcast Clouds7°C16 mph, E100%10000m1010hPa80%
20-Jun-2024 21:00Overcast Clouds7°C18 mph, E96%10000m1009hPa80%